| time (UTC) | temp F | wind direction | speed knots | gust knots | rain 1hr in | rain 24hr in | rain mn in | humidity % | barometer mb |
| 20260508063045 | 65 | 265 | 1.7 | 1.7 | 0.00 | 0.00 | 0.00 | 64 | 1012.6 |
| 20260508053044 | 62 | 267 | 0.0 | 0.0 | 0.00 | 0.00 | 0.00 | 68 | 1011.8 |
| 20260508050043 | 61 | 267 | 0.0 | 2.6 | 0.00 | 0.00 | 0.00 | 67 | 1011.5 |
| 20260508043042 | 61 | 258 | 2.6 | 2.6 | 0.00 | 0.00 | 0.00 | 61 | 1011.5 |
| 20260508040042 | 62 | 258 | 0.0 | 0.9 | 0.00 | 0.00 | 0.00 | 55 | 1011.2 |
| 20260508030041 | 62 | 258 | 0.0 | 0.0 | 0.00 | 0.00 | 0.00 | 52 | 1010.6 |
| 20260508020039 | 61 | 258 | 1.7 | 3.5 | 0.00 | 0.00 | 0.00 | 52 | 1010.4 |
| 20260508010039 | 61 | 254 | 0.0 | 2.6 | 0.00 | 0.00 | 0.00 | 59 | 1010.8 |
| 20260508003038 | 61 | 254 | 0.9 | 2.6 | 0.00 | 0.00 | 0.00 | 60 | 1010.6 |
| 20260508000037 | 61 | 254 | 0.9 | 2.6 | 0.00 | 0.00 | 0.00 | 64 | 1010.7 |
| 20260507233037 | 60 | 255 | 0.0 | 0.9 | 0.00 | 0.00 | 0.00 | 68 | 1010.9 |
| 20260507230036 | 61 | 242 | 3.5 | 3.5 | 0.00 | 0.00 | 0.00 | 69 | 1011.6 |
| 20260507223035 | 63 | 227 | 1.7 | 2.6 | 0.00 | 0.00 | 0.00 | 64 | 1012.0 |
| 20260507220035 | 63 | 221 | 2.6 | 2.6 | 0.00 | 0.00 | 0.00 | 65 | 1012.4 |
| 20260507210034 | 64 | 245 | 2.6 | 4.3 | 0.00 | 0.00 | 0.00 | 59 | 1011.3 |
| 20260507203034 | 64 | 239 | 0.0 | 1.7 | 0.00 | 0.00 | 0.00 | 59 | 1010.9 |
| 20260507200033 | 65 | 232 | 0.0 | 0.9 | 0.00 | 0.00 | 0.00 | 60 | 1011.0 |
| 20260507193032 | 65 | 219 | 0.9 | 1.7 | 0.00 | 0.00 | 0.00 | 61 | 1010.9 |
| 20260507190032 | 66 | 215 | 1.7 | 3.5 | 0.00 | 0.00 | 0.00 | 61 | 1010.6 |
| 20260507183031 | 66 | 202 | 1.7 | 2.6 | 0.00 | 0.00 | 0.00 | 62 | 1010.2 |
| 20260507180031 | 67 | 203 | 4.3 | 4.3 | 0.00 | 0.00 | 0.00 | 61 | 1010.2 |
| 20260507173030 | 68 | 216 | 2.6 | 5.2 | 0.00 | 0.00 | 0.00 | 58 | 1010.0 |
| 20260507163029 | 70 | 197 | 2.6 | 4.3 | 0.00 | 0.00 | 0.00 | 50 | 1009.7 |
| 20260507150027 | 73 | 284 | 6.1 | 6.1 | 0.00 | 0.00 | 0.00 | 46 | 1009.3 |
| 20260507143027 | 75 | 213 | 2.6 | 3.5 | 0.00 | 0.00 | 0.00 | 45 | 1010.1 |
| 20260507140027 | 76 | 220 | 8.7 | 9.6 | 0.00 | 0.00 | 0.00 | 46 | 1010.1 |
| 20260507120025 | 73 | 319 | 0.9 | 3.5 | 0.00 | 0.00 | 0.00 | 48 | 1010.2 |
| 20260507113024 | 73 | 315 | 1.7 | 4.3 | 0.00 | 0.00 | 0.00 | 47 | 1010.4 |
| 20260507110024 | 73 | 360 | 4.3 | 7.0 | 0.00 | 0.00 | 0.00 | 49 | 1010.5 |
| 20260507103024 | 73 | 146 | 1.7 | 4.3 | 0.00 | 0.00 | 0.00 | 49 | 1011.0 |
| 20260507100023 | 75 | 90 | 0.9 | 4.3 | 0.00 | 0.00 | 0.00 | 46 | 1011.0 |
| 20260507093022 | 73 | 16 | 1.7 | 6.1 | 0.00 | 0.00 | 0.00 | 46 | 1010.6 |
| 20260507090021 | 73 | 74 | 2.6 | 3.5 | 0.00 | 0.00 | 0.00 | 44 | 1010.8 |
| 20260507083021 | 72 | 90 | 2.6 | 7.8 | 0.00 | 0.00 | 0.00 | 45 | 1010.8 |
| 20260507080020 | 71 | 355 | 0.9 | 2.6 | 0.00 | 0.00 | 0.00 | 46 | 1010.5 |
| 20260507073020 | 69 | 341 | 2.6 | 7.0 | 0.00 | 0.00 | 0.00 | 46 | 1010.7 |
| 20260507070019 | 68 | 26 | 2.6 | 4.3 | 0.00 | 0.00 | 0.00 | 46 | 1011.0 |